EN

Hourly Weather Alterosa

Today, 25 January, Monday

Time Temperature Precipitation Wind Pressure Humidity
00:00 +18°C° 0 mm 0 mps 690 mmHg 91%
01:00 +18°C° 0 mm 0 mps 690 mmHg 92%
02:00 +18°C° 0 mm 0 mps 689 mmHg 92%
03:00 +18°C° 0 mm 0 mps 689 mmHg 93%
04:00 +18°C° 0 mm 0 mps 689 mmHg 93%
05:00 +18°C° 0 mm 0 mps 689 mmHg 94%
06:00 +20°C° 0 mm 1 mps 689 mmHg 95%
07:00 +21°C° 0 mm 1 mps 690 mmHg 89%
08:00 +23°C° 0 mm 2 mps 691 mmHg 83%
09:00 +25°C° 0 mm 2 mps 692 mmHg 76%
10:00 +26°C° 0.1 mm 2 mps 692 mmHg 73%
11:00 +27°C° 0.1 mm 3 mps 691 mmHg 69%
12:00 +28°C° 0.1 mm 3 mps 691 mmHg 66%
13:00 +28°C° 0.4 mm 3 mps 691 mmHg 66%
14:00 +28°C° 0.4 mm 2 mps 690 mmHg 67%
15:00 +28°C° 0.4 mm 2 mps 690 mmHg 68%
16:00 +27°C° 0.4 mm 2 mps 690 mmHg 73%
17:00 +26°C° 0.4 mm 1 mps 689 mmHg 78%
18:00 +26°C° 0.4 mm 1 mps 689 mmHg 82%
19:00 +24°C° 0.5 mm 1 mps 689 mmHg 84%
20:00 +23°C° 0.5 mm 1 mps 690 mmHg 86%
21:00 +20°C° 0.5 mm 0 mps 690 mmHg 88%
22:00 +19°C° 0 mm 0 mps 690 mmHg 89%
23:00 +19°C° 0 mm 0 mps 690 mmHg 89%

Tomorrow, 26 January, Tuesday

Time Temperature Precipitation Wind Pressure Humidity
00:00 +19°C° 0 mm 0 mps 690 mmHg 90%
01:00 +18°C° 0 mm 0 mps 690 mmHg 91%
02:00 +18°C° 0 mm 0 mps 689 mmHg 92%
03:00 +20°C° 0 mm 1 mps 689 mmHg 94%
04:00 +20°C° 0 mm 1 mps 689 mmHg 94%
05:00 +20°C° 0 mm 1 mps 689 mmHg 95%
06:00 +19°C° 0 mm 1 mps 690 mmHg 95%
07:00 +21°C° 0 mm 1 mps 690 mmHg 91%
08:00 +23°C° 0 mm 2 mps 691 mmHg 86%
09:00 +25°C° 0 mm 2 mps 691 mmHg 81%
10:00 +26°C° 0.2 mm 2 mps 691 mmHg 77%
11:00 +27°C° 0.2 mm 3 mps 691 mmHg 73%
12:00 +28°C° 0.2 mm 3 mps 691 mmHg 69%
13:00 +28°C° 0.8 mm 3 mps 691 mmHg 70%
14:00 +28°C° 0.8 mm 2 mps 690 mmHg 71%
15:00 +28°C° 0.8 mm 2 mps 690 mmHg 73%
16:00 +27°C° 1.3 mm 2 mps 689 mmHg 77%
17:00 +26°C° 1.3 mm 1 mps 689 mmHg 82%
18:00 +25°C° 1.3 mm 1 mps 689 mmHg 87%
19:00 +24°C° 0.7 mm 1 mps 689 mmHg 88%
20:00 +23°C° 0.7 mm 1 mps 690 mmHg 89%
21:00 +22°C° 0.7 mm 1 mps 690 mmHg 90%
22:00 +22°C° 0 mm 1 mps 690 mmHg 90%
23:00 +19°C° 0 mm 0 mps 690 mmHg 91%

Day after tomorrow, 27 January, Wednesday

Time Temperature Precipitation Wind Pressure Humidity
00:00 +19°C° 0 mm 0 mps 690 mmHg 92%
01:00 +19°C° 0 mm 0 mps 690 mmHg 92%
02:00 +19°C° 0 mm 0 mps 690 mmHg 93%
03:00 +18°C° 0 mm 0 mps 689 mmHg 94%
04:00 +20°C° 0 mm 1 mps 689 mmHg 94%
05:00 +20°C° 0 mm 1 mps 690 mmHg 95%
06:00 +20°C° 0 mm 1 mps 690 mmHg 96%
07:00 +20°C° 0 mm 2 mps 690 mmHg 91%
08:00 +23°C° 0 mm 2 mps 691 mmHg 87%
09:00 +24°C° 0 mm 3 mps 691 mmHg 83%
10:00 +25°C° 0 mm 3 mps 691 mmHg 80%
11:00 +26°C° 0 mm 3 mps 691 mmHg 76%
12:00 +27°C° 0 mm 3 mps 691 mmHg 73%
13:00 +28°C° 0.1 mm 3 mps 691 mmHg 71%
14:00 +28°C° 0.1 mm 3 mps 690 mmHg 70%
15:00 +29°C° 0.1 mm 3 mps 689 mmHg 68%
16:00 +28°C° 0.1 mm 3 mps 689 mmHg 72%
17:00 +27°C° 0.1 mm 3 mps 689 mmHg 76%
18:00 +26°C° 0.1 mm 2 mps 689 mmHg 80%
19:00 +25°C° 0 mm 2 mps 689 mmHg 84%
20:00 +24°C° 0 mm 1 mps 689 mmHg 87%
21:00 +22°C° 0 mm 1 mps 689 mmHg 91%
22:00 +22°C° 0 mm 1 mps 689 mmHg 91%
23:00 +21°C° 0 mm 1 mps 689 mmHg 92%

28 January, Thursday

Time Temperature Precipitation Wind Pressure Humidity
00:00 +19°C° 0 mm 0 mps 689 mmHg 92%
01:00 +20°C° 0 mm 1 mps 689 mmHg 92%
02:00 +20°C° 0 mm 1 mps 689 mmHg 92%
03:00 +19°C° 0 mm 1 mps 689 mmHg 91%
04:00 +18°C° 0 mm 1 mps 689 mmHg 91%
05:00 +18°C° 0 mm 1 mps 689 mmHg 90%
06:00 +16°C° 0 mm 1 mps 689 mmHg 90%
07:00 +19°C° 0 mm 1 mps 689 mmHg 83%
08:00 +22°C° 0 mm 1 mps 690 mmHg 77%
09:00 +24°C° 0 mm 2 mps 691 mmHg 70%
10:00 +25°C° 0 mm 2 mps 691 mmHg 66%
11:00 +27°C° 0 mm 2 mps 691 mmHg 62%
12:00 +28°C° 0 mm 3 mps 691 mmHg 58%
13:00 +28°C° 0 mm 3 mps 690 mmHg 57%
14:00 +29°C° 0 mm 3 mps 689 mmHg 56%
15:00 +29°C° 0 mm 3 mps 689 mmHg 55%
16:00 +28°C° 0 mm 2 mps 689 mmHg 60%
17:00 +27°C° 0 mm 2 mps 688 mmHg 66%
18:00 +26°C° 0 mm 2 mps 688 mmHg 71%
19:00 +24°C° 0 mm 1 mps 688 mmHg 73%
20:00 +22°C° 0 mm 1 mps 688 mmHg 75%
21:00 +21°C° 0 mm 1 mps 688 mmHg 77%
22:00 +18°C° 0 mm 0 mps 689 mmHg 79%
23:00 +18°C° 0 mm 0 mps 689 mmHg 81%

29 January, Friday

Time Temperature Precipitation Wind Pressure Humidity
00:00 +17°C° 0 mm 0 mps 689 mmHg 83%
01:00 +17°C° 0 mm 0 mps 689 mmHg 84%
02:00 +17°C° 0 mm 0 mps 689 mmHg 85%
03:00 +16°C° 0 mm 0 mps 688 mmHg 87%
04:00 +16°C° 0 mm 0 mps 689 mmHg 88%
05:00 +16°C° 0 mm 0 mps 689 mmHg 89%
06:00 +16°C° 0 mm 0 mps 689 mmHg 90%
07:00 +18°C° 0 mm 0 mps 690 mmHg 84%
08:00 +23°C° 0 mm 1 mps 691 mmHg 77%
09:00 +25°C° 0 mm 1 mps 691 mmHg 71%
10:00 +26°C° 0 mm 1 mps 691 mmHg 65%
11:00 +28°C° 0 mm 2 mps 691 mmHg 60%
12:00 +29°C° 0 mm 2 mps 691 mmHg 55%
13:00 +29°C° 0 mm 2 mps 691 mmHg 55%
14:00 +29°C° 0 mm 2 mps 690 mmHg 55%
15:00 +30°C° 0 mm 2 mps 690 mmHg 55%
16:00 +29°C° 0 mm 2 mps 689 mmHg 61%
17:00 +28°C° 0 mm 2 mps 689 mmHg 66%
18:00 +27°C° 0 mm 1 mps 689 mmHg 71%
19:00 +25°C° 0 mm 1 mps 689 mmHg 74%
20:00 +23°C° 0 mm 1 mps 689 mmHg 77%
21:00 +20°C° 0 mm 0 mps 689 mmHg 80%
22:00 +20°C° 0 mm 0 mps 690 mmHg 81%
23:00 +19°C° 0 mm 0 mps 690 mmHg 82%

30 January, Saturday

Time Temperature Precipitation Wind Pressure Humidity
00:00 +19°C° 0 mm 0 mps 690 mmHg 83%
01:00 +18°C° 0 mm 0 mps 690 mmHg 84%
02:00 +18°C° 0 mm 0 mps 690 mmHg 85%
03:00 +18°C° 0 mm 0 mps 689 mmHg 86%
04:00 +18°C° 0 mm 0 mps 690 mmHg 87%
05:00 +17°C° 0 mm 0 mps 690 mmHg 89%
06:00 +17°C° 0 mm 0 mps 690 mmHg 90%
07:00 +19°C° 0 mm 0 mps 691 mmHg 84%
08:00 +23°C° 0 mm 1 mps 691 mmHg 78%
09:00 +26°C° 0 mm 1 mps 692 mmHg 72%
10:00 +27°C° 0 mm 1 mps 692 mmHg 67%
11:00 +28°C° 0 mm 1 mps 692 mmHg 63%
12:00 +30°C° 0 mm 2 mps 692 mmHg 59%
13:00 +30°C° 0 mm 1 mps 692 mmHg 58%
14:00 +30°C° 0 mm 1 mps 691 mmHg 57%
15:00 +28°C° 0 mm 0 mps 691 mmHg 56%
16:00 +29°C° 0 mm 1 mps 690 mmHg 61%
17:00 +28°C° 0 mm 1 mps 690 mmHg 66%
18:00 +27°C° 0 mm 1 mps 690 mmHg 71%
19:00 +26°C° 0 mm 1 mps 690 mmHg 74%
20:00 +25°C° 0 mm 1 mps 690 mmHg 78%
21:00 +21°C° 0 mm 0 mps 690 mmHg 81%
22:00 +21°C° 0 mm 0 mps 690 mmHg 82%
23:00 +20°C° 0 mm 0 mps 690 mmHg 84%
Show more